STARLINK-5550 (56361 NORAD) Tracking and Keplerian Element Data

This shows tracking and keplerian element data for the satellite.

Feedback or suggestion? Click here.




ElementValue
Catalog56361
NameSTARLINK-5550
Epoch Orbit183
Epoch Day127.16667824
Epoch Year2023
RAAN126.6572
Inclination97.665
Eccentricity0.0001555
Argument of Perigee97.1905
Mean Anonmoly97.9371
Mean Motion15.68011663
Decay Rate-0.0085763
L11 56361U 23058AW 23127.16667824 -.00857630 00000+0 -86007-2 0 9997
L22 56361 97.6650 126.6572 0001555 97.1905 97.9371 15.68011663 1837



Live tracking and technical data element details for STARLINK-5550 (NORAD 56361). STARLINK-5550 can be tracked NOW for your location showing map with azimuth and elevation plus other details from your city location.







IsCatalogInMostPopularTable: catalog: 56361, numindb: 3
Update: records affected: 1



GetName: 56361 STARLINK-5550

Hit Count: updated at: Sun, 04 Jun 2023 23:57:49 GMT